Location: Borotín
(49.5055°N, 14.6142°E)
Time: 11:55:38
(UTC+00:00)

Lacrosse 5 - Pass Details

Date: 27 May 2022
Orbit: 714 x 724 km, 57.0° (Epoch: 09 March)

Event Time Altitude Azimuth Distance (km) Brightness Sun altitude
Exits shadow 01:46:11 10° 246° (WSW) 2,207 3.8 -10.1°
Maximum altitude 01:51:15 71° 330° (NNW) 768 2.1 -9.5°
Drops below altitude 10° 01:56:21 10° 55° (NE) 2,216 5.9 -9.0°
Sets 01:58:46 0° 58° (ENE) 3,138 6.9 -8.7°
